IRIDIUM 33 DEB, 39777

Orbit data source: Space-Track

IRIDIUM 33 DEB, 39777 is space debris in LEO originally from a launch on Sun, 14 Sep 1997 UTC launched from the Tyuratam Missile And Space Complex (TTMTR). The debris from Iridium 33, an American commercial communications satellite, has been tracked extensively since its accidental collision with the defunct Russian satellite Cosmos 2251 in 2009. This event, occurring at high speed in low Earth orbit (LEO), generated thousands of pieces of space debris, significantly increasing the risk of further collisions. The Iridium 33 debris cloud has impacted space traffic management and orbital debris mitigation strategies, making it a subject of ongoing study in space situational awareness.

Loading next visibility...
Identifier
39777, 1997-051AAJ
Orbit
LEO
Country
Flag of USUS
Related business
Manufacturer
Unknown
Mission
Spacecraft
Bus & Motor
Unknown
Mass
Unknown
Launch date (UTC)
1997-09-14 (28 years ago)
Launch vehicle
Unknown
Launch site
Tyuratam Missile And Space Complex (TTMTR)
Object type
Payload
Rocket body
Debris
Shape & HBR
Unknown shape, 0.1 m
Radar Cross Section
Small (<0.1 m²)

Expand to show TLE details & history
Last TLE update: 2 days ago

TLE from 2 days ago
0 IRIDIUM 33 DEB
1 39777U 97051AAJ 25351.48436852  .00009279  00000-0  20288-2 0  9990
2 39777  85.9622 172.7412 0060188 170.5587 189.6768 14.56536598602541
Epoch: 2025-12-17T11:37Z
TLE epoch observation values (Epoch: 2025-12-17T11:37:29.440Z)
Latitude
-0.00001°
Longitude
-87.98503°
Altitude
749.494 km
Speed
7.458 km/s
True Right ascension
11h 30m 57s
True Declination
0° 00' 00"
Sunlit
Object was in daylight at epoch
Visualization orbit readout
Latitude
Unknown
Longitude
Unknown
Altitude
Unknown
Speed
Unknown
Apparent Right ascension
Unknown
Apparent Declination
Unknown
Sunlit
N/A
Visualization observer readout
Local Sidereal Time
16:03:41
Azimuth
Unknown
Elevation
Unknown
Doppler factor
Unknown
Orbital elements
Apogee altitude
743.931 km
Perigee altitude
658.712 km
Semi-major axis
7,079.458 km
Eccentricity
0.00602
Inclination
85.9622°
RAAN
172.7412°
Arg. of periapsis
170.5587°
True anomaly
189.56172°
Mean anomaly
189.6768°
Eccentric anomaly
189.61918°
Mean motion
3.6437 °/min
Orbital period
98.8 mins
BSTAR
0.0020288
Loading maneuver chart data...
Computing Atmospheric mass density...

Documentation

Showing up to 5 results
|